Temperature
11 10 10 10 9 9 9 9 9 9 9 9 9 9 8 8 8 8 8 8 8 8 7 7 7 7 7 7 7 7 7 7 7 7 7 7 7 7 7 7 7 7 8
10 10 10 10 9 9 9 9 9 9 9 9 9 9 9 9 8 8 8 8 8 7 7 7 7 6 6 6 6 6 6 6 6 6 6 6 6 6 6 6 6 7 7
10 10 10 10 9 9 9 9 9 9 9 9 9 9 9 9 9 8 8 8 7 7 7 7 7 6 6 6 6 5 5 5 5 5 5 5 5 5 5 5 5 6 6
10 10 10 10 9 9 9 9 9 9 9 9 9 9 9 9 9 8 8 8 7 7 7 7 6 6 6 6 5 5 5 5 5 4 4 4 4 4 4 4 5 5 5
10 10 10 10 9 9 9 9 9 9 9 9 9 9 9 9 8 8 8 7 7 7 7 6 6 6 6 5 5 5 5 4 4 4 4 4 4 4 4 4 4 4 4
10 10 10 10 9 9 9 9 9 9 9 9 9 9 9 9 8 8 7 7 7 7 6 6 6 6 6 6 5 5 4 4 4 3 3 3 3 3 3 3 4 4 4
10 10 10 10 9 9 9 9 9 9 9 9 9 9 9 8 8 8 7 7 7 6 6 6 6 6 5 5 5 5 4 4 3 3 3 3 3 3 3 3 3 3 3
10 10 10 10 9 9 9 9 9 9 9 9 9 9 8 8 8 7 7 7 6 6 6 6 6 5 5 5 5 5 4 4 3 2 2 2 2 2 2 2 2 3 3
10 10 10 10 9 9 9 9 9 9 9 9 9 8 8 8 7 7 7 7 6 6 6 6 5 5 5 5 4 4 4 4 2 2 1 1 1 1 2 2 2 2 2
10 10 10 10 9 9 9 9 9 9 9 9 8 8 8 7 7 7 7 6 6 6 6 5 5 5 4 4 4 4 3 3 2 1 1 1 1 1 1 1 1 1 1
10 10 10 10 9 9 9 9 9 9 9 9 8 8 8 7 7 6 6 6 6 6 5 5 5 4 4 4 4 3 3 2 2 1 1 0 0 0 0 0 0 0 0
10 10 10 10 10 9 9 9 9 9 9 9 8 8 7 7 6 6 5 6 6 6 5 5 5 4 4 3 3 3 2 2 2 1 1 1 0 0 -0 -0 -0 -0 -0
10 10 10 10 10 9 9 9 9 9 9 8 8 8 7 7 6 6 5 5 5 5 5 5 4 4 3 2 2 2 2 1 1 1 1 1 0 -0 -0 -1 -1 -1 -1
10 10 10 10 10 9 9 9 9 9 8 8 8 7 7 6 6 5 5 4 4 4 4 4 4 3 2 2 2 1 1 1 1 0 0 0 -0 -1 -1 -1 -2 -2 -2
10 10 10 10 9 9 9 9 9 9 8 8 8 7 7 6 6 5 4 4 3 2 3 4 3 3 2 1 1 1 1 0 0 -0 -0 -1 -1 -1 -2 -2 -2 -2 -2
10 10 9 9 9 9 9 9 9 8 8 8 7 7 6 6 5 5 4 4 3 2 2 2 2 2 1 1 0 0 -0 -0 -0 -1 -1 -1 -2 -2 -2 -3 -3 -3 -3
10 9 9 9 9 9 9 9 8 8 8 7 7 7 6 6 5 5 4 3 3 2 1 2 2 2 1 1 0 -0 -1 -1 -1 -1 -2 -2 -2 -3 -3 -3 -3 -3 -3
9 9 9 9 9 9 9 8 8 8 8 7 7 6 6 5 5 4 4 3 3 2 1 1 1 1 1 -0 -1 -1 -1 -1 -2 -2 -2 -3 -3 -3 -3 -4 -4 -4 -4
9 9 9 9 9 9 8 8 8 7 7 7 6 6 5 5 4 4 3 3 2 2 1 0 0 0 -0 -1 -1 -1 -2 -2 -2 -3 -3 -3 -3 -4 -4 -4 -4 -4 -4
9 9 9 9 9 8 8 8 7 7 6 6 6 5 5 4 4 3 3 2 2 1 1 0 -0 -0 -1 -1 -2 -2 -3 -3 -3 -3 -3 -4 -4 -4 -4 -4 -4 -4 -4
9 9 8 8 8 8 7 7 7 6 6 6 5 5 4 4 3 3 2 2 1 1 -0 -1 -1 -1 -2 -2 -3 -3 -3 -4 -4 -4 -4 -4 -4 -4 -4 -4 -4 -5 -5
8 8 8 8 8 7 7 6 6 6 5 5 5 4 4 3 3 2 2 1 0 -0 -1 -1 -2 -2 -2 -3 -3 -4 -4 -5 -5 -5 -5 -5 -5 -5 -5 -5 -5 -5 -5
8 8 8 7 7 7 6 6 5 5 5 4 4 3 3 3 2 2 1 1 0 -0 -1 -2 -3 -3 -3 -3 -4 -4 -5 -5 -5 -5 -6 -5 -5 -5 -5 -6 -5 -6 -6
7 7 7 7 6 6 6 5 5 4 4 4 3 3 2 2 1 1 0 -0 -0 -1 -2 -2 -3 -3 -4 -4 -4 -5 -5 -5 -6 -6 -6 -6 -6 -6 -6 -6 -6 -6 -6
7 7 6 6 6 5 5 4 4 4 3 3 2 2 1 1 1 -0 -1 -1 -1 -2 -2 -3 -3 -4 -4 -5 -5 -5 -6 -6 -6 -6 -6 -7 -7 -7 -7 -6 -6 -6 -7
6 6 6 5 5 5 4 4 3 3 2 2 2 1 1 0 -1 -1 -2 -2 -2 -2 -3 -4 -4 -4 -5 -5 -6 -6 -6 -7 -7 -7 -7 -7 -8 -8 -8 -7 -7 -7 -7
Wind_Speed
8 9 9 9 8 8 7 5 4 3 2 2 2 1 1 1 1 0 2 2 1 2 5 6 7 8 8 8 9 10 10 10 11 11 12 12 12 12 13 12 12 13 13
12 9 7 7 8 9 8 6 5 3 2 1 1 1 1 2 2 1 1 1 0 1 3 4 6 7 8 9 9 10 10 10 11 11 12 12 12 13 13 13 13 13 14
15 11 7 6 8 9 8 5 3 2 1 0 1 2 2 3 2 1 1 1 1 1 2 3 5 6 8 9 9 10 10 10 11 11 12 12 12 13 13 13 14 14 14
17 13 7 6 9 9 7 3 2 2 1 1 1 2 2 3 2 1 1 2 3 2 2 3 4 6 7 8 9 10 10 10 11 11 12 12 13 13 14 14 15 15 15
18 14 8 8 10 7 5 3 2 2 1 0 1 1 2 2 2 1 3 3 4 4 3 3 4 5 7 8 9 10 10 11 11 12 12 13 13 14 14 15 15 16 16
18 15 9 9 10 5 4 3 3 2 1 1 1 2 3 2 1 1 2 3 3 4 3 3 3 4 6 7 9 10 11 11 11 12 12 13 14 14 15 15 16 16 17
17 14 8 8 7 6 6 6 4 3 1 1 2 3 4 3 2 2 2 2 3 3 4 3 3 3 4 6 8 9 10 11 12 12 13 14 14 15 15 16 17 17 18
17 14 10 7 7 6 6 5 4 3 2 2 3 2 2 4 3 3 2 2 2 3 3 2 3 3 4 4 6 8 10 11 12 13 13 14 15 16 16 17 18 18 19
17 15 13 9 8 7 7 6 6 6 4 1 2 4 3 3 2 3 2 2 2 1 2 3 4 5 4 4 5 6 9 10 12 13 14 15 16 17 17 18 18 19 19
15 16 14 12 9 7 8 7 6 5 5 3 1 1 2 4 2 2 3 3 3 2 2 3 5 5 5 5 5 7 9 11 13 14 15 16 17 18 19 19 19 20 20
12 14 14 12 9 7 8 8 6 6 4 5 4 3 2 1 2 2 3 4 4 3 3 3 4 4 5 5 6 8 10 12 13 15 16 17 18 19 20 20 20 21 21
8 11 12 11 10 8 8 8 7 8 5 5 4 4 4 3 3 3 4 3 4 4 3 3 2 2 4 5 7 9 11 13 15 16 17 18 19 19 20 21 21 21 22
7 10 9 9 9 8 9 8 7 7 7 6 5 4 4 4 3 4 3 3 3 3 3 2 2 3 3 5 8 10 11 14 16 17 17 18 19 20 20 21 22 22 22
9 11 10 10 9 10 10 8 6 6 6 6 6 5 4 4 4 4 4 3 2 3 3 4 2 4 3 5 8 9 10 14 16 17 18 19 20 20 21 21 22 22 23
9 11 11 10 10 10 10 9 6 7 7 6 6 6 4 4 4 4 4 4 4 3 4 4 3 3 5 7 9 9 10 14 17 18 19 20 20 21 21 22 22 22 23
11 12 12 11 11 10 9 8 7 7 7 6 5 6 5 4 4 4 4 4 5 5 5 4 5 5 6 9 11 11 12 16 17 18 20 20 21 22 22 22 22 23 24
12 13 13 12 12 11 10 9 8 8 8 6 5 6 6 5 4 4 4 4 5 5 7 6 5 4 4 6 9 11 13 13 14 18 20 21 22 22 22 23 23 24 24
12 12 12 12 11 11 10 10 9 9 8 8 7 7 7 5 5 5 4 5 5 6 6 9 6 4 6 6 6 7 10 12 13 17 20 22 22 23 23 24 24 25 25
12 11 12 12 11 11 10 9 9 8 8 8 8 8 7 6 6 5 5 6 5 6 6 6 7 5 5 5 6 6 7 8 12 16 19 20 21 23 24 24 25 25 25
13 12 11 11 10 10 9 9 8 8 7 7 7 7 7 7 8 7 6 7 6 6 6 6 7 6 5 5 4 6 7 5 7 11 16 18 21 23 23 24 25 26 26
12 11 10 9 9 8 9 9 8 8 7 6 6 6 7 9 10 8 6 6 6 6 5 6 7 6 5 5 5 5 7 7 7 7 7 9 11 11 15 20 23 24 25
10 10 10 10 9 8 12 14 10 7 7 7 7 6 7 8 10 13 14 13 10 7 6 6 6 7 8 7 6 6 7 8 7 4 4 7 6 8 9 13 20 24 24
9 9 9 9 9 8 12 13 12 7 7 7 7 6 6 6 9 6 11 14 13 16 15 9 8 8 7 7 7 8 8 8 9 5 5 8 6 8 9 15 22 23 23
9 8 8 8 7 7 10 10 10 6 5 6 7 7 7 7 7 7 7 7 8 9 11 8 8 9 8 8 8 8 9 8 7 5 4 7 6 6 8 11 19 20 19
7 6 7 8 7 6 8 8 7 4 4 6 6 6 7 7 12 13 8 7 8 8 12 16 17 16 18 19 15 7 5 7 8 5 4 4 5 6 6 7 11 15 18
7 7 6 6 6 5 7 8 7 4 5 5 5 6 10 10 13 14 8 7 9 9 8 8 10 12 11 13 16 8 5 7 7 5 3 3 4 4 5 4 4 8 12
Wind_Direction
178 183 190 193 195 196 200 209 219 236 257 272 271 264 323 352 1 252 256 244 270 338 352 358 0 360 2 3 4 6 3 359 357 354 352 348 346 344 340 335 333 333 329
181 182 185 189 196 198 202 201 203 212 231 257 333 8 5 353 349 358 165 162 193 1 12 15 10 11 9 8 7 6 2 358 355 350 346 344 342 339 336 333 330 327 325
181 181 181 188 198 198 193 188 187 178 165 80 17 356 351 339 344 19 114 138 125 87 60 32 20 16 14 10 5 4 1 358 353 348 344 341 339 335 332 329 326 324 322
184 182 181 191 196 187 178 167 159 137 121 86 347 330 335 331 334 0 114 123 120 108 77 47 30 19 8 3 1 359 356 353 349 346 344 341 337 334 330 327 325 322 319
186 182 184 190 183 173 169 166 148 146 156 203 277 315 332 322 321 63 108 117 122 118 98 55 31 12 2 358 356 352 349 348 347 346 343 340 337 335 331 328 326 324 321
186 182 182 182 172 161 162 158 146 128 139 173 347 354 345 342 25 70 90 98 108 108 97 69 46 16 3 357 353 349 347 346 345 344 343 340 337 335 332 329 327 324 321
186 181 177 172 169 170 173 163 145 136 111 91 69 7 351 6 39 29 48 79 76 84 85 69 48 16 4 1 355 351 347 343 342 342 340 338 336 333 331 329 327 324 321
184 184 176 173 169 164 162 162 150 140 128 114 124 92 5 346 356 8 22 66 54 55 47 27 8 350 347 353 350 351 345 340 338 338 336 336 334 331 329 328 326 323 322
184 181 178 173 171 169 172 174 165 155 159 139 126 142 151 223 301 331 352 10 1 13 4 347 337 332 331 336 338 337 340 337 334 333 333 332 330 327 326 325 324 322 320
182 180 177 174 171 170 170 174 169 161 150 159 144 120 148 154 163 300 319 327 337 333 317 323 318 320 331 336 333 329 332 331 330 330 329 328 326 325 324 323 322 320 318
180 179 177 174 172 172 171 166 162 161 156 161 163 151 131 105 132 170 268 305 318 295 282 290 294 308 330 338 333 327 329 328 327 326 325 325 324 323 321 321 320 318 316
180 179 175 174 172 170 170 169 166 163 162 158 161 159 159 162 179 177 220 260 284 286 287 288 276 283 321 338 334 330 329 326 324 322 322 321 321 320 318 318 317 316 314
182 184 176 175 173 170 167 162 162 164 164 163 169 176 177 181 167 167 183 230 267 292 304 297 257 257 296 333 328 324 326 323 320 320 319 318 317 316 315 314 314 313 312
184 178 176 175 170 167 166 163 161 168 166 169 176 174 179 190 180 176 176 179 252 292 290 276 285 250 265 314 313 315 319 317 315 317 316 315 314 312 312 312 312 311 310
175 173 174 172 170 169 167 164 168 171 169 176 180 183 187 198 191 191 183 175 183 243 274 267 266 261 270 298 298 302 305 308 311 312 311 312 311 311 310 310 309 308 307
173 173 174 173 171 171 169 167 168 172 172 181 183 186 199 204 201 197 196 196 191 202 245 253 246 254 279 285 293 301 296 304 306 308 309 309 309 309 308 307 307 306 306
174 177 176 173 174 175 172 172 178 177 182 190 191 197 211 205 206 209 203 204 208 201 242 266 251 259 262 266 283 287 289 287 288 302 306 306 306 306 306 306 305 305 306
177 176 173 174 177 178 177 178 182 185 188 195 201 203 217 212 217 219 214 221 225 217 229 265 272 261 254 257 261 271 284 286 283 295 302 303 304 304 304 304 305 304 304
174 173 173 176 179 179 180 183 184 189 195 200 201 206 217 213 229 231 228 232 237 241 230 252 272 261 259 257 266 272 274 278 284 292 299 300 301 303 303 304 305 305 304
173 175 177 178 177 176 179 180 182 189 197 205 208 211 215 215 227 232 236 238 240 247 248 254 268 269 262 258 258 273 284 270 276 287 290 292 297 300 301 303 305 304 304
173 172 170 172 171 175 182 181 184 190 197 209 219 222 225 229 235 239 242 239 235 244 251 258 268 274 272 272 266 265 282 284 274 268 272 280 288 286 290 296 301 301 301
165 165 172 173 177 187 192 193 189 191 199 209 225 234 239 243 253 261 267 269 262 256 253 254 265 268 273 265 265 269 278 290 291 257 260 279 275 278 282 285 294 300 302
163 168 173 175 184 192 194 199 199 192 203 214 223 233 245 249 260 258 271 278 278 277 275 272 266 265 271 265 268 274 269 271 278 276 277 284 273 278 281 290 298 301 303
167 171 175 178 182 195 197 200 203 200 212 223 227 230 238 251 255 261 255 261 262 267 274 273 259 262 260 261 255 265 273 276 269 265 257 278 280 274 286 286 293 298 304
164 169 172 172 178 194 199 204 205 197 220 237 241 238 239 247 266 276 274 268 273 272 280 281 280 283 287 292 294 291 286 290 293 283 238 251 276 287 282 274 282 297 308
161 159 162 170 178 191 207 216 216 198 225 244 250 249 254 260 271 278 271 266 275 276 272 279 282 287 288 288 293 285 271 279 286 288 247 247 276 300 297 268 269 288 299
Height
1540 1542 1543 1544 1545 1546 1547 1547 1547 1547 1547 1548 1547 1547 1546 1546 1545 1545 1544 1543 1543 1542 1541 1540 1539 1538 1537 1536 1535 1534 1533 1532 1531 1530 1529 1528 1527 1526 1525 1524 1524 1523 1522
1539 1540 1542 1543 1544 1545 1546 1546 1546 1547 1547 1547 1546 1546 1545 1545 1544 1543 1542 1542 1541 1540 1539 1539 1538 1537 1536 1535 1534 1532 1531 1530 1529 1527 1526 1525 1524 1523 1522 1521 1520 1519 1519
1537 1538 1540 1541 1542 1543 1544 1545 1545 1545 1545 1545 1545 1545 1544 1543 1542 1541 1541 1540 1539 1539 1538 1537 1536 1535 1534 1533 1532 1531 1529 1528 1526 1525 1524 1523 1521 1520 1519 1518 1517 1516 1515
1534 1536 1538 1539 1541 1542 1543 1543 1544 1544 1544 1544 1544 1543 1542 1541 1541 1540 1539 1538 1538 1537 1537 1536 1535 1534 1533 1531 1530 1529 1527 1526 1524 1523 1521 1520 1519 1517 1516 1515 1514 1513 1512
1531 1533 1535 1537 1539 1540 1541 1541 1542 1542 1542 1542 1542 1541 1540 1540 1539 1538 1538 1537 1537 1536 1535 1534 1533 1532 1531 1529 1528 1527 1525 1524 1522 1521 1519 1517 1516 1514 1513 1512 1510 1509 1508
1529 1531 1533 1535 1536 1538 1539 1539 1540 1540 1540 1540 1540 1539 1539 1538 1537 1537 1537 1536 1535 1535 1534 1533 1532 1530 1529 1528 1526 1524 1523 1522 1520 1518 1517 1515 1513 1511 1510 1508 1507 1505 1504
1525 1528 1530 1532 1533 1535 1536 1537 1538 1538 1538 1538 1538 1538 1537 1537 1536 1536 1535 1535 1534 1533 1532 1531 1530 1529 1527 1525 1524 1522 1520 1519 1517 1516 1514 1512 1510 1508 1506 1505 1503 1501 1500
1522 1524 1526 1529 1530 1532 1534 1535 1535 1535 1536 1536 1536 1536 1536 1536 1535 1534 1534 1533 1533 1532 1531 1530 1528 1526 1525 1523 1521 1519 1517 1516 1514 1513 1511 1509 1507 1505 1503 1501 1499 1497 1495
1518 1520 1523 1525 1527 1529 1530 1532 1533 1533 1533 1534 1534 1534 1533 1533 1533 1533 1532 1531 1531 1530 1529 1527 1526 1524 1522 1520 1518 1516 1514 1513 1511 1509 1507 1505 1503 1501 1499 1497 1495 1492 1490
1514 1517 1520 1522 1524 1526 1527 1529 1530 1530 1531 1531 1531 1531 1531 1531 1531 1530 1530 1529 1528 1527 1526 1525 1523 1521 1520 1518 1515 1513 1511 1509 1507 1505 1503 1501 1499 1497 1495 1492 1490 1487 1485
1510 1513 1516 1518 1520 1522 1524 1525 1526 1527 1527 1528 1528 1528 1528 1528 1528 1528 1527 1526 1525 1524 1523 1522 1520 1518 1516 1514 1512 1510 1508 1506 1503 1501 1499 1496 1494 1492 1489 1487 1484 1482 1479
1505 1508 1511 1514 1516 1519 1520 1522 1523 1524 1524 1525 1525 1525 1525 1525 1524 1524 1523 1522 1521 1520 1519 1518 1517 1515 1513 1511 1509 1506 1504 1502 1499 1497 1494 1491 1489 1486 1484 1481 1479 1476 1474
1499 1503 1507 1510 1512 1515 1517 1518 1519 1520 1521 1521 1522 1522 1522 1521 1521 1521 1520 1518 1516 1515 1514 1513 1512 1511 1509 1507 1504 1502 1500 1497 1494 1492 1489 1486 1483 1480 1478 1475 1472 1470 1467
1495 1499 1502 1506 1508 1511 1513 1514 1515 1516 1517 1518 1518 1518 1518 1518 1518 1517 1516 1515 1513 1511 1510 1509 1508 1506 1504 1502 1500 1497 1495 1492 1489 1486 1483 1480 1478 1475 1472 1469 1466 1464 1461
1491 1495 1498 1501 1504 1506 1508 1510 1511 1513 1513 1514 1515 1515 1515 1514 1514 1513 1512 1511 1511 1507 1504 1503 1503 1501 1500 1497 1495 1492 1489 1486 1484 1481 1478 1475 1472 1469 1466 1463 1460 1458 1455
1486 1490 1493 1496 1499 1502 1504 1506 1508 1509 1510 1510 1511 1511 1511 1511 1510 1509 1508 1507 1505 1503 1500 1498 1497 1496 1494 1492 1490 1486 1483 1481 1478 1475 1472 1469 1466 1463 1460 1457 1454 1451 1449
1482 1485 1489 1492 1495 1497 1500 1502 1503 1504 1505 1506 1507 1507 1507 1506 1506 1505 1503 1502 1501 1498 1494 1492 1491 1490 1488 1486 1483 1480 1477 1474 1471 1468 1465 1462 1459 1456 1453 1450 1447 1445 1442
1477 1481 1484 1488 1490 1493 1495 1497 1499 1500 1501 1502 1502 1502 1502 1502 1501 1500 1498 1497 1495 1493 1490 1485 1484 1483 1481 1479 1476 1473 1470 1467 1464 1461 1458 1455 1453 1450 1447 1444 1441 1437 1434
1473 1477 1480 1483 1486 1489 1491 1493 1495 1496 1497 1498 1498 1498 1497 1497 1496 1494 1493 1491 1489 1487 1484 1481 1477 1476 1474 1472 1469 1466 1463 1460 1458 1455 1452 1449 1446 1443 1440 1437 1433 1430 1427
1469 1472 1476 1479 1482 1484 1487 1488 1490 1491 1492 1493 1493 1493 1492 1491 1490 1489 1487 1485 1483 1481 1478 1475 1471 1469 1467 1465 1462 1459 1455 1453 1450 1448 1445 1442 1439 1436 1433 1429 1426 1422 1418
1465 1469 1472 1475 1477 1480 1482 1484 1485 1487 1487 1488 1488 1488 1487 1486 1485 1483 1481 1479 1477 1474 1472 1469 1465 1462 1460 1458 1456 1452 1448 1444 1442 1440 1436 1434 1431 1428 1425 1421 1418 1414 1410
1461 1464 1467 1470 1473 1475 1477 1479 1481 1482 1482 1483 1483 1483 1482 1481 1479 1477 1476 1473 1472 1469 1465 1462 1459 1456 1453 1452 1449 1446 1442 1437 1433 1432 1429 1425 1424 1420 1417 1414 1410 1407 1403
1457 1460 1463 1466 1469 1471 1473 1475 1476 1477 1477 1478 1477 1477 1476 1475 1473 1471 1469 1467 1465 1463 1460 1457 1453 1450 1448 1445 1442 1438 1435 1432 1428 1426 1423 1417 1416 1412 1410 1406 1403 1400 1396
1453 1456 1459 1462 1465 1467 1469 1470 1471 1472 1472 1472 1472 1471 1469 1468 1466 1464 1461 1459 1457 1455 1453 1450 1447 1444 1441 1439 1436 1433 1429 1425 1421 1420 1417 1411 1408 1405 1402 1399 1396 1393 1390
1449 1452 1455 1458 1461 1463 1465 1466 1466 1466 1466 1466 1465 1464 1463 1461 1460 1457 1454 1451 1448 1447 1445 1443 1440 1437 1435 1432 1430 1427 1422 1419 1414 1412 1411 1406 1401 1397 1393 1391 1389 1387 1384
1446 1449 1452 1454 1457 1458 1460 1461 1461 1460 1460 1459 1459 1458 1456 1454 1452 1450 1448 1444 1441 1439 1437 1434 1432 1429 1427 1425 1423 1420 1417 1413 1409 1405 1403 1401 1396 1393 1386 1383 1383 1381 1378